Weather History for EBLG - October, 2013

Change the Weather History Date:

Wednesday, October 23, 2013

  Actual Average Record
Temperature  
Mean Temperature 60 °F -  
Max Temperature 65 °F 48 °F 67 °F (2012)
Min Temperature 55 °F 39 °F 28 °F (2007)
Degree Days  
Heating Degree Days 5    
Growing Degree Days 10 (Base 50)    
Moisture  
Dew Point 54 °F    
Average Humidity 78    
Maximum Humidity 88    
Minimum Humidity 52    
Precipitation  
Precipitation 0.00 in - - ()
Sea Level Pressure  
Sea Level Pressure 29.69 in    
Wind  
Wind Speed 15 mph ()    
Max Wind Speed 24 mph    
Max Gust Speed 41 mph    
Visibility 8.5 miles    
Events Rain    
Averages and records for this station are not official NWS values.
T = Trace of Precipitation, MM = Missing Value Source: Averaged Metar Reports

Daily Weather History Graph

Daily Weather History Graph

Search for Another Location

Airport or City:

Trip Planner

Search our weather history database for the weather conditions in past years. The results will help you decide how hot, cold, wet, or windy it might be!

Date:

Astronomy

Oct. 23, 2013 Rise Set
Actual Time 8:14 AM CEST 6:29 PM CEST
Civil Twilight 7:40 AM CEST 7:03 PM CEST
Nautical Twilight 7:02 AM CEST 7:41 PM CEST
Astronomical Twilight 6:24 AM CEST 8:19 PM CEST
Moon 9:30 PM CEST (10/23) 12:35 PM CEST (10/23)
Length of Visible Light 11h 22m
Length of Day
10h 15m
Waning Gibbous, 81% of the Moon is Illuminated
Oct 23
Waning Gibbous
Oct 27
Last Quarter
Nov 3
New
Nov 10
First Quarter
Nov 17
Full

Hourly Weather History & Observations

Time (CEST) Temp. Dew Point Humidity Pressure Visibility Wind Dir Wind Speed Gust Speed Precip Events Conditions
12:20 AM 60.8 °F 57.2 °F 88% 29.62 in 6.2 mi South 13.8 mph - N/A Rain Light Rain Showers
12:50 AM 60.8 °F 57.2 °F 88% 29.62 in 6.2 mi South 12.7 mph - N/A Rain Light Rain Showers
1:20 AM 60.8 °F 57.2 °F 88% 29.62 in - South 15.0 mph - N/A   Clear
1:50 AM 60.8 °F 57.2 °F 88% 29.62 in 6.2 mi South 13.8 mph - N/A Rain Light Rain Showers
2:00 AM 60 °F 57 °F 86% 29.62 in 19 mi South 13.4 mph - - Rain Light Rain Showers
2:20 AM 60.8 °F 57.2 °F 88% 29.62 in 6.2 mi South 13.8 mph - N/A Rain Light Rain Showers
2:50 AM 60.8 °F 57.2 °F 88% 29.62 in 6.2 mi South 15.0 mph - N/A Rain Light Rain Showers
3:20 AM 60.8 °F 55.4 °F 82% 29.62 in - South 13.8 mph - N/A   Clear
3:50 AM 60.8 °F 55.4 °F 82% 29.62 in - South 16.1 mph - N/A   Clear
4:20 AM 60.8 °F 57.2 °F 88% 29.62 in - South 16.1 mph - N/A   Clear
4:50 AM 60.8 °F 55.4 °F 82% 29.59 in - South 15.0 mph - N/A   Clear
5:00 AM 60 °F 56 °F 83% 29.60 in 19 mi South 15.7 mph - -   Partly Cloudy
5:20 AM 60.8 °F 55.4 °F 82% 29.59 in - South 16.1 mph - N/A   Clear
5:50 AM 60.8 °F 55.4 °F 82% 29.59 in - South 15.0 mph - N/A   Clear
6:20 AM 60.8 °F 57.2 °F 88% 29.59 in - South 13.8 mph - N/A   Clear
6:50 AM 60.8 °F 57.2 °F 88% 29.59 in - South 15.0 mph - N/A   Clear
7:20 AM 60.8 °F 57.2 °F 88% 29.59 in - South 12.7 mph - N/A   Clear
7:50 AM 60.8 °F 57.2 °F 88% 29.59 in - South 15.0 mph - N/A   Clear
8:00 AM 61 °F 57 °F 81% 29.60 in 19 mi South 15.7 mph - -   Partly Cloudy
8:20 AM 60.8 °F 57.2 °F 88% 29.59 in - South 16.1 mph - N/A   Clear
8:50 AM 60.8 °F 57.2 °F 88% 29.59 in 6.2 mi South 16.1 mph - N/A   Partly Cloudy
9:20 AM 60.8 °F 55.4 °F 82% 29.62 in 6.2 mi South 16.1 mph - N/A   Scattered Clouds
9:50 AM 60.8 °F 57.2 °F 88% 29.62 in 6.2 mi South 17.3 mph - N/A   Partly Cloudy
10:20 AM 62.6 °F 57.2 °F 82% 29.65 in 6.2 mi SSW 18.4 mph - N/A   Partly Cloudy
10:50 AM 62.6 °F 55.4 °F 77% 29.65 in 6.2 mi SSW 20.7 mph - N/A   Partly Cloudy
11:00 AM 63 °F 56 °F 70% 29.65 in 19 mi SSW 20.1 mph - -   Scattered Clouds
11:20 AM 62.6 °F 55.4 °F 77% 29.65 in 6.2 mi SSW 19.6 mph - N/A   Scattered Clouds
11:50 AM 62.6 °F 55.4 °F 77% 29.65 in 6.2 mi SSW 20.7 mph - N/A   Scattered Clouds
12:20 PM 62.6 °F 53.6 °F 72% 29.68 in 6.2 mi SSW 24.2 mph - N/A   Scattered Clouds
12:50 PM 62.6 °F 51.8 °F 68% 29.68 in 6.2 mi SSW 24.2 mph - N/A   Scattered Clouds
1:20 PM 64.4 °F 51.8 °F 64% 29.68 in 6.2 mi SSW 23.0 mph 34.5 mph N/A   Scattered Clouds
1:50 PM 64.4 °F 51.8 °F 64% 29.68 in 6.2 mi SSW 19.6 mph - N/A   Scattered Clouds
2:00 PM 64 °F 52 °F 56% 29.68 in 19 mi SSW 20.1 mph - -   Mostly Cloudy
2:20 PM 64.4 °F 51.8 °F 64% 29.68 in 6.2 mi SW 24.2 mph 38.0 mph N/A   Scattered Clouds
2:50 PM 64.4 °F 48.2 °F 56% 29.68 in 6.2 mi SW 24.2 mph 41.4 mph N/A   Scattered Clouds
3:20 PM 64.4 °F 51.8 °F 64% 29.71 in 6.2 mi SSW 19.6 mph 31.1 mph N/A   Scattered Clouds
3:50 PM 64.4 °F 51.8 °F 64% 29.71 in 6.2 mi SW 20.7 mph - N/A   Scattered Clouds
4:20 PM 64.4 °F 50.0 °F 59% 29.71 in 6.2 mi SW 21.9 mph 33.4 mph N/A   Scattered Clouds
4:50 PM 64.4 °F 50.0 °F 59% 29.71 in 6.2 mi SW 23.0 mph - N/A   Partly Cloudy
5:00 PM 64 °F 51 °F 52% 29.72 in 19 mi SW 22.4 mph - -   Partly Cloudy
5:20 PM 64.4 °F 50.0 °F 59% 29.71 in 6.2 mi SSW 18.4 mph - N/A   Partly Cloudy
5:50 PM 62.6 °F 51.8 °F 68% 29.74 in 6.2 mi SSW 17.3 mph - N/A   Mostly Cloudy
6:20 PM 62.6 °F 51.8 °F 68% 29.74 in 6.2 mi SSW 15.0 mph - N/A   Mostly Cloudy
6:50 PM 60.8 °F 51.8 °F 72% 29.77 in 6.2 mi SSW 12.7 mph - N/A   Mostly Cloudy
7:20 PM 60.8 °F 51.8 °F 72% 29.77 in 6.2 mi SSW 16.1 mph - N/A   Mostly Cloudy
7:50 PM 60.8 °F 51.8 °F 72% 29.80 in 6.2 mi SSW 17.3 mph - N/A   Scattered Clouds
8:00 PM 61 °F 53 °F 66% 29.79 in 19 mi SSW 15.7 mph - - Rain Light Rain Showers
8:20 PM 59.0 °F 53.6 °F 82% 29.80 in 6.2 mi SSW 15.0 mph - N/A   Scattered Clouds
8:50 PM 59.0 °F 53.6 °F 82% 29.83 in 6.2 mi SSW 13.8 mph - N/A   Scattered Clouds
9:20 PM 59.0 °F 51.8 °F 77% 29.83 in 6.2 mi SW 15.0 mph - N/A   Scattered Clouds
9:50 PM 57.2 °F 53.6 °F 88% 29.86 in 6.2 mi SW 13.8 mph - N/A Rain Light Rain Showers
10:20 PM 55.4 °F 51.8 °F 88% 29.86 in 6.2 mi SSW 9.2 mph - N/A   Scattered Clouds
10:50 PM 57.2 °F 53.6 °F 88% 29.89 in 6.2 mi SSW 11.5 mph - N/A   Partly Cloudy
11:00 PM 56 °F 53 °F 86% 29.88 in 19 mi SSW 11.2 mph - - Rain Light Rain Showers
11:20 PM 55.4 °F 51.8 °F 88% 29.89 in 6.2 mi SSW 10.4 mph - N/A   Scattered Clouds
11:50 PM 55.4 °F 51.8 °F 88% 29.89 in 6.2 mi SW 10.4 mph - N/A   Partly Cloudy